Location: Bun Machan
(52.1403°N, 7.3744°W)
Time: 18:15:18
(UTC+00:00)

IRS-P3 - Pass Details

Date: 14 July 2020
Orbit: 814 x 818 km, 98.8° (Epoch: 12 August)

Event Time Altitude Azimuth Distance (km) Brightness Sun altitude
Rises 03:29:08 0° 14° (NNE) 3,356 8.6 -7.1°
Reaches altitude 10° 03:31:29 10° 13° (NNE) 2,420 7.7 -6.9°
Maximum altitude 03:36:50 77° 289° (WNW) 844 4.2 -6.3°
Drops below altitude 10° 03:42:09 10° 204° (SSW) 2,406 6.0 -5.8°
Enters shadow 03:43:15 - 204° (SSW) 2,845 6.3 -5.7°
